Hourly Data Report for September 13, 2017

All times are specified in Local Standard Time (LST). Add 1 hour to adjust for Daylight Saving Time where and when it is observed.

ARCTIC BAY CS
NUNAVUT

72°59'34.000" N
85°00'44.000" W
10.00 m
2400404
71592
XAT

Download Data

Hourly Data (September 2017)
Hourly Data Report for September 13, 2017
Temp Definition
°C
Dew Point Temp Definition
°C
Rel Hum Definition
%
Wind Dir Definition
10's deg

Wind Spd Definition
km/h
Visibility Definition
km
Stn Press Definition
kPa
Hmdx Definition


Wind Chill Definition


Weather Definition


TIME
00:00 -0.3 -4.7 72 8 1   101.59   -1 LegendNANA
01:00 -0.3 -5.4 68 8 5   101.60   -2 LegendNANA
02:00 -0.5 -5.2 71 4 4   101.62   -2 LegendNANA
03:00 -0.7 -5.7 69 6 6   101.64   -3 LegendNANA
04:00 -0.8 -5.7 69 7 4   101.68   -2 LegendNANA
05:00 -0.9 -5.8 70 12 6   101.70   -3 LegendNANA
06:00 -1.1 -5.6 72 12 8   101.72   -4 LegendNANA
07:00 -1.0 -5.8 69 12 7   101.74   -4 LegendNANA
08:00 -1.2 -6.1 69 12 15   101.76   -6 LegendNANA
09:00 -1.5 -6.8 67 10 13   101.74   -6 LegendNANA
10:00 -1.5 -6.7 68 7 10   101.74   -5 LegendNANA
11:00 -1.0 -6.5 66 16 5   101.71   -3 LegendNANA
12:00 -0.9 -6.2 68 19 9   101.69   -4 LegendNANA
13:00 -0.7 -6.2 66 18 5   101.69   -2 LegendNANA
14:00 -0.1 -5.8 65 21 8   101.69   -3 LegendNANA
15:00 0.1 -5.7 65 24 6   101.71     LegendNANA
16:00 -0.1 -5.4 68 30 8   101.73   -3 LegendNANA
17:00 -0.3 -5.6 68 29 6   101.74   -2 LegendNANA
18:00 -0.5 -5.4 69 31 5   101.74   -2 LegendNANA
19:00 -0.9 -5.1 73 35 3   101.76   -2 LegendNANA
20:00 -1.2 -5.2 74 6 5   101.75   -3 LegendNANA
21:00 -1.4 -5.2 75 5 4   101.72   -3 LegendNANA
22:00 -1.6 -5.8 73 6 14   101.71   -6 LegendNANA
23:00 -1.6 -5.3 75 4 5   101.72   -3 LegendNANA

Notes on Data Quality.

Legend

  • E = Estimated
  • M = Missing
  • NA = Not Available
  • ‡ = Partner data that is not subject to review by the National Climate Archives
Date modified: